TimeEDT,TemperatureF,Dew PointF,Humidity,Sea Level PressureIn,VisibilityMPH,Wind Direction,Wind SpeedMPH,Gust SpeedMPH,PrecipitationIn,Events,Conditions,WindDirDegrees,DateUTC
12:15 AM,64.9,63.9,96,29.92,5.0,Calm,Calm,-,N/A,,Clear,0,2013-06-28 04:15:00
12:35 AM,64.6,63.5,96,29.92,5.0,Calm,Calm,-,N/A,,Clear,0,2013-06-28 04:35:00
12:55 AM,64.0,63.0,96,29.92,4.0,Calm,Calm,-,N/A,,Clear,0,2013-06-28 04:55:00
1:15 AM,63.9,62.8,96,29.92,3.0,Calm,Calm,-,N/A,,Mist,0,2013-06-28 05:15:00
1:35 AM,63.7,62.6,96,29.91,5.0,Calm,Calm,-,N/A,,Scattered Clouds,0,2013-06-28 05:35:00
1:55 AM,63.0,61.7,96,29.90,4.0,Calm,Calm,-,N/A,,Scattered Clouds,0,2013-06-28 05:55:00
2:35 AM,62.6,61.2,95,29.90,3.0,Calm,Calm,-,N/A,,Scattered Clouds,0,2013-06-28 06:35:00
2:55 AM,62.1,60.8,96,29.89,5.0,Calm,Calm,-,N/A,,Mostly Cloudy,0,2013-06-28 06:55:00
3:15 AM,62.8,61.5,96,29.90,2.5,Calm,Calm,-,N/A,,Overcast,0,2013-06-28 07:15:00
3:35 AM,62.8,61.7,96,29.90,0.2,Calm,Calm,-,N/A,Fog,Fog,0,2013-06-28 07:35:00
3:55 AM,62.8,61.7,96,29.90,0.2,Calm,Calm,-,N/A,Fog,Fog,0,2013-06-28 07:55:00
4:15 AM,62.6,61.3,96,29.89,0.2,Calm,Calm,-,N/A,Fog,Fog,0,2013-06-28 08:15:00
4:35 AM,62.4,61.2,96,29.89,0.2,Calm,Calm,-,N/A,Fog,Fog,0,2013-06-28 08:35:00
4:55 AM,62.1,60.8,96,29.90,0.2,Calm,Calm,-,N/A,Fog,Fog,0,2013-06-28 08:55:00
5:15 AM,62.1,60.8,96,29.90,0.2,Calm,Calm,-,N/A,Fog,Fog,0,2013-06-28 09:15:00
5:35 AM,62.1,60.8,96,29.89,0.2,Calm,Calm,-,0.01,Fog,Fog,0,2013-06-28 09:35:00
5:55 AM,62.4,60.8,94,29.89,0.5,Calm,Calm,-,0.01,Fog,Fog,0,2013-06-28 09:55:00
6:15 AM,61.7,60.1,94,29.89,0.8,Calm,Calm,-,N/A,,Overcast,0,2013-06-28 10:15:00
6:35 AM,61.7,60.3,95,29.90,0.5,Calm,Calm,-,N/A,Fog,Fog,0,2013-06-28 10:35:00
6:55 AM,61.7,60.3,95,29.90,0.2,Calm,Calm,-,N/A,Fog,Fog,0,2013-06-28 10:55:00
7:15 AM,61.9,60.4,95,29.90,0.2,Calm,Calm,-,N/A,Fog,Fog,0,2013-06-28 11:15:00
7:35 AM,62.2,60.8,95,29.90,0.2,Calm,Calm,-,N/A,Fog,Fog,0,2013-06-28 11:35:00
7:55 AM,62.8,61.5,96,29.90,0.5,Calm,Calm,-,N/A,Fog,Fog,0,2013-06-28 11:55:00
8:55 AM,64.0,62.6,95,29.89,1.0,Calm,Calm,-,N/A,,Overcast,0,2013-06-28 12:55:00
9:15 AM,65.1,63.5,94,29.89,2.0,Calm,Calm,-,N/A,,Overcast,0,2013-06-28 13:15:00
9:35 AM,66.0,64.6,95,29.88,7.0,Calm,Calm,-,N/A,,Scattered Clouds,0,2013-06-28 13:35:00
9:55 AM,68.0,66.4,95,29.87,10.0,Calm,Calm,-,N/A,,Clear,0,2013-06-28 13:55:00
10:15 AM,69.1,67.8,96,29.87,10.0,Calm,Calm,-,N/A,,Clear,0,2013-06-28 14:15:00
10:35 AM,71.6,70.5,96,29.86,10.0,Calm,Calm,-,N/A,,Clear,0,2013-06-28 14:35:00
10:55 AM,75.2,67.8,78,29.86,10.0,Calm,Calm,-,N/A,,Clear,0,2013-06-28 14:55:00
11:15 AM,77.7,64.8,64,29.86,10.0,North,4.6,-,N/A,,Clear,10,2013-06-28 15:15:00
11:35 AM,78.3,62.8,59,29.85,10.0,Calm,Calm,-,N/A,,Clear,0,2013-06-28 15:35:00
11:55 AM,79.0,62.6,57,29.85,10.0,Calm,Calm,-,N/A,,Clear,0,2013-06-28 15:55:00
12:15 PM,81.1,63.3,55,29.85,10.0,Calm,Calm,-,N/A,,Clear,0,2013-06-28 16:15:00
12:35 PM,82.8,60.8,47,29.85,10.0,NW,3.5,18.4,N/A,,Clear,310,2013-06-28 16:35:00
12:55 PM,83.3,58.1,42,29.84,10.0,West,9.2,-,N/A,,Clear,280,2013-06-28 16:55:00
1:15 PM,83.7,58.6,42,29.83,10.0,NW,4.6,18.4,N/A,,Mostly Cloudy,310,2013-06-28 17:15:00
1:35 PM,82.4,62.1,50,29.83,10.0,Calm,Calm,-,N/A,,Overcast,0,2013-06-28 17:35:00
2:15 PM,85.5,58.1,39,29.81,10.0,WNW,12.7,24.2,N/A,,Clear,300,2013-06-28 18:15:00
2:35 PM,84.4,58.1,41,29.80,10.0,West,10.4,16.1,N/A,,Scattered Clouds,280,2013-06-28 18:35:00
2:55 PM,85.6,60.6,43,29.78,10.0,NNW,6.9,-,N/A,,Scattered Clouds,330,2013-06-28 18:55:00
3:15 PM,85.8,61.0,43,29.76,10.0,Calm,Calm,-,N/A,,Scattered Clouds,0,2013-06-28 19:15:00
3:35 PM,84.4,61.2,45,29.75,10.0,Calm,Calm,-,N/A,,Scattered Clouds,0,2013-06-28 19:35:00
3:55 PM,84.4,61.9,47,29.75,10.0,NNE,4.6,-,N/A,,Scattered Clouds,30,2013-06-28 19:55:00
4:15 PM,83.3,62.6,50,29.74,10.0,Calm,Calm,-,N/A,,Mostly Cloudy,0,2013-06-28 20:15:00
4:35 PM,79.9,67.1,65,29.73,10.0,Calm,Calm,-,N/A,,Overcast,0,2013-06-28 20:35:00
4:55 PM,76.6,68.4,75,29.74,10.0,Calm,Calm,-,N/A,,Mostly Cloudy,0,2013-06-28 20:55:00
5:15 PM,76.1,68.4,77,29.75,10.0,WSW,3.5,-,N/A,,Mostly Cloudy,250,2013-06-28 21:15:00
5:35 PM,75.2,65.8,73,29.76,10.0,West,8.1,-,N/A,Rain,Light Rain,260,2013-06-28 21:35:00
5:55 PM,75.2,64.8,70,29.75,10.0,Calm,Calm,-,N/A,,Scattered Clouds,0,2013-06-28 21:55:00
6:15 PM,75.6,65.3,70,29.76,10.0,NE,3.5,-,N/A,,Clear,40,2013-06-28 22:15:00
6:35 PM,75.6,64.8,69,29.75,10.0,Calm,Calm,-,N/A,,Clear,0,2013-06-28 22:35:00
6:55 PM,76.6,65.3,68,29.73,10.0,NNE,3.5,-,N/A,,Clear,20,2013-06-28 22:55:00
7:15 PM,76.3,64.4,67,29.75,10.0,Calm,Calm,-,N/A,,Scattered Clouds,0,2013-06-28 23:15:00
7:35 PM,75.0,65.3,72,29.77,10.0,Calm,Calm,-,N/A,,Mostly Cloudy,0,2013-06-28 23:35:00
7:55 PM,74.7,66.4,75,29.78,10.0,Calm,Calm,-,N/A,,Overcast,0,2013-06-28 23:55:00
8:15 PM,74.3,66.0,75,29.77,10.0,Calm,Calm,-,N/A,,Overcast,0,2013-06-29 00:15:00
8:35 PM,73.0,66.6,80,29.76,10.0,Calm,Calm,-,N/A,,Mostly Cloudy,0,2013-06-29 00:35:00
8:55 PM,71.6,66.7,85,29.76,10.0,WNW,3.5,-,N/A,,Mostly Cloudy,290,2013-06-29 00:55:00
9:15 PM,71.6,66.0,82,29.76,10.0,Calm,Calm,-,N/A,,Scattered Clouds,0,2013-06-29 01:15:00
9:35 PM,70.3,66.2,87,29.77,10.0,Calm,Calm,-,N/A,,Scattered Clouds,0,2013-06-29 01:35:00
9:55 PM,69.6,66.6,90,29.77,10.0,Calm,Calm,-,N/A,,Overcast,0,2013-06-29 01:55:00
10:15 PM,69.4,66.6,91,29.77,10.0,Calm,Calm,-,N/A,,Overcast,0,2013-06-29 02:15:00
10:35 PM,69.3,67.5,94,29.77,7.0,Calm,Calm,-,N/A,Rain,Light Rain,0,2013-06-29 02:35:00
10:55 PM,68.7,67.3,95,29.77,10.0,Calm,Calm,-,N/A,,Scattered Clouds,0,2013-06-29 02:55:00
11:15 PM,68.5,67.5,96,29.78,10.0,Calm,Calm,-,N/A,,Clear,0,2013-06-29 03:15:00
11:35 PM,68.2,67.1,96,29.78,10.0,Calm,Calm,-,N/A,,Clear,0,2013-06-29 03:35:00
11:55 PM,67.8,66.6,96,29.77,10.0,West,5.8,-,N/A,,Clear,280,2013-06-29 03:55:00